Palm Springs, CA

4:04 PM PDT on October 17, 2017 (GMT -0700)
Palm Springs International

Weather History for KPSP - September, 2013

Change the Weather History Date:

Saturday, September 21, 2013

  Actual Average Record
Temperature  
Mean Temperature 81 °F 85 °F  
Max Temperature 96 °F 99 °F 114 °F (1943)
Min Temperature 65 °F 71 °F 50 °F (1941)
Degree Days  
Heating Degree Days 0 0  
Month to date heating degree days 0 0  
Since 1 July heating degree days 0 0  
Cooling Degree Days 16 20  
Month to date cooling degree days 546 482  
Year to date cooling degree days 4042 3566  
Growing Degree Days 30 (Base 50)    
Moisture  
Dew Point 48 °F    
Average Humidity 44    
Maximum Humidity 73    
Minimum Humidity 14    
Precipitation  
Precipitation 0.00 in 0.01 in 0.90 in (1983)
Month to date precipitation 0.03 0.32  
Year to date precipitation 2.05 3.85  
Since 1 July precipitation 1.08  
Snow  
Snow 0.00 in - - ()
Month to date snowfall 0.0  
Year to date snowfall 0.0  
Snow Depth 0.00 in    
Sea Level Pressure  
Sea Level Pressure 29.70 in    
Wind  
Wind Speed 5 mph (WNW)    
Max Wind Speed 23 mph    
Max Gust Speed 29 mph    
Visibility 10 miles    
Events      
T = Trace of Precipitation, MM = Missing Value Source: NWS Daily Summary

Daily Weather History Graph

Daily Weather History Graph

Search for Another Location

Airport or City:

Trip Planner

Search our weather history database for the weather conditions in past years. The results will help you decide how hot, cold, wet, or windy it might be!

Date:

Astronomy

Sep. 21, 2013 Rise Set
Actual Time 6:33 AM PDT 6:43 PM PDT
Civil Twilight 6:08 AM PDT 7:08 PM PDT
Nautical Twilight 5:39 AM PDT 7:37 PM PDT
Astronomical Twilight 5:10 AM PDT 8:07 PM PDT
Moon 8:06 PM PDT (9/21) 8:48 AM PDT (9/21)
Length of Visible Light 12h 59m
Length of Day
12h 10m
Waning Gibbous, 94% of the Moon is Illuminated
Sep 21
Waning Gibbous
Sep 26
Last Quarter
Oct 4
New
Oct 11
First Quarter
Oct 18
Full

Hourly Weather History & Observations

Time (PDT) Temp. Dew Point Humidity Pressure Visibility Wind Dir Wind Speed Gust Speed Precip Events Conditions
12:53 AM 73.9 °F 52.0 °F 46% 29.72 in 10.0 mi South 3.5 mph - N/A   Clear
1:53 AM 73.9 °F 52.0 °F 46% 29.73 in 10.0 mi Calm Calm - N/A   Clear
2:53 AM 71.1 °F 53.1 °F 53% 29.73 in 10.0 mi Calm Calm - N/A   Clear
3:53 AM 70.0 °F 55.0 °F 59% 29.74 in 10.0 mi South 3.5 mph - N/A   Clear
4:53 AM 70.0 °F 54.0 °F 57% 29.75 in 10.0 mi SSW 4.6 mph - N/A   Clear
5:53 AM 66.0 °F 55.0 °F 68% 29.75 in 10.0 mi South 3.5 mph - N/A   Clear
6:53 AM 64.9 °F 55.0 °F 70% 29.76 in 10.0 mi South 3.5 mph - N/A   Clear
7:53 AM 71.1 °F 53.1 °F 53% 29.77 in 10.0 mi Calm Calm - N/A   Clear
8:53 AM 75.9 °F 52.0 °F 43% 29.78 in 10.0 mi Calm Calm - N/A   Clear
9:53 AM 82.0 °F 46.9 °F 29% 29.78 in 10.0 mi Calm Calm - N/A   Clear
10:53 AM 86.0 °F 45.0 °F 24% 29.77 in 10.0 mi Calm Calm - N/A   Clear
11:53 AM 89.1 °F 41.0 °F 19% 29.75 in 10.0 mi North 3.5 mph - N/A   Clear
12:53 PM 91.9 °F 43.0 °F 18% 29.73 in 10.0 mi NNW 8.1 mph - N/A   Clear
1:53 PM 93.0 °F 41.0 °F 16% 29.69 in 10.0 mi NW 13.8 mph 23.0 mph N/A   Clear
2:53 PM 93.0 °F 37.0 °F 14% 29.66 in 10.0 mi NW 9.2 mph 17.3 mph N/A   Clear
3:53 PM 95.0 °F 39.0 °F 14% 29.64 in 10.0 mi NNW 15.0 mph 20.7 mph N/A   Clear
4:53 PM 91.9 °F 43.0 °F 18% 29.63 in 10.0 mi NW 19.6 mph 25.3 mph N/A   Clear
5:53 PM 88.0 °F 46.9 °F 24% 29.62 in 10.0 mi NW 25.3 mph 29.9 mph N/A   Clear
6:53 PM 84.9 °F 48.9 °F 29% 29.62 in 10.0 mi NW 19.6 mph 29.9 mph N/A   Clear
7:53 PM 82.9 °F 48.9 °F 31% 29.63 in 10.0 mi NW 19.6 mph 26.5 mph N/A   Clear
8:53 PM 82.0 °F 45.0 °F 27% 29.65 in 10.0 mi NW 16.1 mph 24.2 mph N/A   Clear
9:53 PM 80.1 °F 45.0 °F 29% 29.65 in 10.0 mi WNW 10.4 mph 21.9 mph N/A   Clear
10:53 PM 77.0 °F 50.0 °F 39% 29.65 in 10.0 mi NNW 25.3 mph 29.9 mph N/A   Clear
11:53 PM 75.9 °F 48.9 °F 38% 29.66 in 10.0 mi NW 20.7 mph 26.5 mph N/A   Clear